SWR528X LSZH-ESSA

Flight info

Callsign SWR528X
Flight time N/A
Altitude 34000
Route DEGES Z1 ETAGO DCT TIKNI/N0444F350 DCT ROBEL DCT KENIG DCT VIBIS/N0443F340 DCT ADUKI/N0447F350 Z400 ARGAD DCT OKAGA DCT VIBAR/N0416F270 Z227 NILUG
Aircraft A321/M-SDE3FGHIRWY/LB1

Departure

Time 2026-05-04 15:26
Airport Zürich Airport (LSZH)

Arrival

Time N/A
Airport Stockholm-Arlanda Airport (ESSA)
Time Latitude Longitude Altitude Speed Heading
2026-05-04 15:16 47.45270 8.55686 1406 ft 0 kts 272°
2026-05-04 15:17 47.45271 8.55655 1408 ft 2 kts 272°
2026-05-04 15:17 47.45272 8.55628 1406 ft 3 kts 275°
2026-05-04 15:18 47.45278 8.55598 1408 ft 3 kts 289°
2026-05-04 15:18 47.45307 8.55558 1413 ft 9 kts 329°
2026-05-04 15:18 47.45378 8.55506 1410 ft 12 kts 335°
2026-05-04 15:19 47.45540 8.55395 1403 ft 14 kts 334°
2026-05-04 15:19 47.45617 8.55343 1404 ft 9 kts 342°
2026-05-04 15:19 47.45670 8.55419 1403 ft 4 kts 86°
2026-05-04 15:20 47.45667 8.55462 1401 ft 5 kts 96°
2026-05-04 15:20 47.45663 8.55514 1402 ft 5 kts 96°
2026-05-04 15:20 47.45659 8.55574 1403 ft 7 kts 95°
2026-05-04 15:20 47.45654 8.55646 1404 ft 7 kts 95°
2026-05-04 15:21 47.45649 8.55731 1409 ft 9 kts 95°
2026-05-04 15:21 47.45641 8.55825 1411 ft 10 kts 97°
2026-05-04 15:21 47.45626 8.56045 1410 ft 13 kts 96°
2026-05-04 15:22 47.45615 8.56188 1415 ft 15 kts 96°
2026-05-04 15:22 47.45605 8.56343 1416 ft 15 kts 96°
2026-05-04 15:22 47.45583 8.56642 1420 ft 14 kts 96°
2026-05-04 15:23 47.45574 8.56776 1423 ft 13 kts 96°
2026-05-04 15:23 47.45565 8.56905 1420 ft 13 kts 96°
2026-05-04 15:23 47.45590 8.57009 1423 ft 10 kts 25°
2026-05-04 15:23 47.45648 8.57001 1424 ft 9 kts 329°
2026-05-04 15:24 47.45667 8.56938 1424 ft 0 kts 277°
2026-05-04 15:25 47.45674 8.56846 1422 ft 37 kts 276°
2026-05-04 15:25 47.45732 8.56035 1415 ft 118 kts 276°
2026-05-04 15:26 47.45972 8.52830 2346 ft 166 kts 277°
2026-05-04 15:26 47.46094 8.51099 3093 ft 179 kts 277°
2026-05-04 15:26 47.46053 8.46982 4229 ft 221 kts 246°
2026-05-04 15:27 47.45233 8.44931 4793 ft 247 kts 238°
2026-05-04 15:27 47.43373 8.40283 5103 ft 246 kts 240°
2026-05-04 15:28 47.41085 8.37054 5860 ft 243 kts 191°
2026-05-04 15:28 47.39411 8.37265 6467 ft 243 kts 155°
2026-05-04 15:28 47.37695 8.41135 7978 ft 239 kts 88°
2026-05-04 15:29 47.38221 8.43425 8502 ft 247 kts 53°
2026-05-04 15:30 47.43372 8.51054 9842 ft 269 kts 47°
2026-05-04 15:30 47.46477 8.58101 10779 ft 282 kts 87°
2026-05-04 15:31 47.46470 8.64081 11447 ft 303 kts 95°
2026-05-04 15:31 47.46396 8.67197 11946 ft 308 kts 94°